RH
30 30 31 33 34 33 33 31 35 33 30 36 36 33 28 27 29 25 23 20 16 17 17 13 11 12 14 14 16 15 14 18 19 20 22 16 13 14 14 14 14 12 10 8 7 6 5 5 5 6 6 5 5 5 6 6 5 5 6 6 6 6 7 7 6 7 7 8 11 10 13 14 12 14 15 16 15 15 16 15 21 22 21 24 26 22 20 21 20 22 24 26 27 27 27 27 28
26 26 28 31 32 31 30 29 33 29 24 28 30 30 26 24 22 19 21 21 16 13 13 10 9 11 12 12 13 13 13 14 15 15 15 13 12 13 13 12 11 9 8 7 6 6 6 6 6 7 7 6 6 6 6 6 6 6 6 6 6 6 6 6 6 6 6 6 6 7 9 12 10 13 14 13 14 15 15 15 16 20 24 26 27 25 24 24 20 19 20 20 22 26 27 27 27
22 23 25 28 28 28 29 28 28 25 21 25 29 29 24 23 22 19 17 17 14 11 11 9 9 10 10 12 11 12 13 14 13 12 12 12 11 11 11 10 9 8 7 6 6 6 7 7 7 7 7 7 7 7 7 7 7 7 7 7 7 7 7 6 6 6 6 6 6 5 6 8 8 10 12 10 13 15 15 15 14 17 23 26 28 27 27 27 22 19 20 19 18 21 22 24 24
20 21 23 24 25 26 27 25 26 26 24 27 30 28 24 25 23 21 17 14 12 10 9 9 10 10 11 14 13 13 14 12 12 12 11 11 10 9 9 9 8 7 6 6 6 6 7 7 8 8 8 8 8 8 8 8 8 8 8 8 8 8 8 8 7 7 7 7 6 6 5 6 6 6 8 7 9 13 14 15 15 16 19 23 27 28 28 26 22 20 21 19 18 19 17 18 18
18 20 21 22 23 22 21 19 24 27 24 27 28 26 25 24 22 20 16 13 12 10 10 10 11 10 10 14 14 14 13 12 12 11 10 9 9 9 9 8 7 6 6 6 6 7 7 8 8 8 8 9 9 9 9 9 9 9 10 9 10 9 9 9 9 8 8 8 7 7 6 6 6 6 6 6 7 9 11 12 13 15 16 20 24 28 27 24 22 21 18 17 21 19 16 15 11
17 18 20 20 18 15 16 14 19 22 22 25 23 22 24 22 20 18 15 13 13 13 14 12 12 12 10 11 12 13 12 11 10 10 9 8 8 8 8 7 7 6 6 6 6 7 7 8 8 9 9 10 10 10 10 10 11 11 11 11 10 10 10 10 10 10 9 9 9 8 8 7 7 6 6 7 7 7 7 8 9 11 13 16 20 24 25 23 22 22 17 17 22 18 15 13 7
14 16 17 17 15 13 18 18 19 19 18 20 19 21 22 20 17 16 16 15 14 16 16 13 13 12 10 10 11 12 11 11 10 10 8 8 8 7 8 7 6 6 6 6 7 8 8 9 9 10 10 10 11 11 11 11 12 12 11 12 12 12 12 12 11 11 11 10 10 10 9 9 8 7 7 7 7 7 7 7 7 8 9 11 15 18 20 19 19 19 17 19 22 18 15 11 5
11 13 13 14 16 15 18 19 19 19 16 16 18 21 21 18 15 17 18 14 14 15 14 14 14 12 10 11 11 11 11 11 11 11 10 9 8 7 7 6 6 6 6 7 7 8 9 9 10 10 11 11 12 12 12 12 12 12 12 13 12 13 13 13 13 13 13 12 12 11 11 10 10 9 8 8 8 8 8 7 7 7 7 8 10 14 16 16 16 17 16 18 19 17 14 7 4
10 12 11 12 15 16 18 16 16 17 17 17 19 20 18 16 15 17 18 15 14 13 11 12 13 12 11 11 10 10 10 10 10 11 11 9 8 6 6 6 6 6 7 7 8 9 9 10 10 11 12 12 12 12 12 12 12 12 13 13 14 14 14 14 14 14 14 14 14 13 13 12 12 11 10 9 9 8 9 8 8 8 8 8 8 10 12 12 12 13 12 15 16 15 11 6 4
12 12 12 14 17 16 16 15 16 17 17 19 20 20 17 16 15 14 15 15 14 12 11 10 12 11 10 11 10 10 10 10 10 10 10 9 8 6 5 6 6 7 7 8 8 9 10 11 12 12 12 12 12 12 12 12 13 13 13 14 14 14 14 14 13 14 14 14 14 14 14 14 14 13 12 11 10 10 9 9 9 9 9 9 8 8 9 8 9 8 9 11 12 11 8 5 5
12 12 11 14 19 16 16 17 17 18 19 19 20 19 16 14 14 13 13 14 13 12 11 12 12 11 10 12 11 10 10 10 10 9 9 9 7 6 6 6 6 7 7 9 9 10 11 11 12 12 12 12 12 12 13 13 13 13 13 13 13 13 13 13 13 13 13 13 13 13 14 15 15 15 14 14 13 12 11 10 10 10 10 10 10 9 9 8 8 8 8 8 8 8 7 6 6
11 14 15 16 18 15 15 18 16 18 18 18 18 17 16 14 14 14 14 13 12 12 12 12 10 10 11 12 10 10 10 10 10 10 9 8 7 6 7 7 7 8 8 9 10 10 11 11 12 12 12 12 12 13 13 13 13 13 13 13 13 13 12 13 12 12 12 13 13 13 13 14 15 16 17 16 16 15 13 12 11 11 11 11 11 10 10 10 9 9 9 8 8 8 7 7 7
10 15 17 16 18 16 16 18 17 18 16 17 18 15 15 14 14 14 13 12 11 13 12 11 9 9 11 11 10 10 10 11 11 11 10 8 7 7 7 7 8 8 9 9 10 10 11 12 12 12 12 13 13 13 13 13 13 13 13 12 12 12 12 12 12 12 12 13 13 13 13 14 15 16 18 19 18 17 16 14 13 12 12 12 12 11 11 11 10 10 10 9 9 8 8 8 7
8 11 12 13 18 18 18 18 18 18 17 17 15 14 14 13 13 12 12 12 12 12 11 10 10 9 10 11 11 10 10 11 12 12 11 9 8 8 8 8 8 9 9 10 10 11 12 13 13 13 13 13 13 13 13 13 12 12 12 12 12 12 12 12 12 13 13 13 13 13 13 14 14 15 17 19 20 19 18 17 15 14 13 12 12 12 12 12 12 11 11 10 10 9 9 9 8
6 9 12 13 15 16 15 16 17 18 17 16 14 14 13 12 12 11 12 13 12 11 10 11 11 10 10 11 11 10 10 11 12 13 11 9 8 8 8 8 9 9 9 10 11 12 13 13 13 13 13 13 13 12 12 12 12 12 12 12 12 12 13 13 13 13 13 13 13 14 14 14 14 15 16 18 19 20 20 19 18 16 15 13 13 12 12 12 12 12 11 11 10 10 10 9 9
6 9 15 14 13 14 13 14 17 17 16 16 13 13 12 11 12 11 11 12 11 11 11 11 11 11 11 10 11 10 10 11 12 13 12 9 9 9 9 9 9 9 10 10 12 13 14 14 14 13 13 13 12 12 12 12 12 13 13 13 13 13 13 13 14 14 14 14 14 14 14 14 14 14 15 16 18 19 20 20 19 19 18 16 15 14 13 12 12 12 12 11 11 10 10 10 9
6 10 16 16 15 15 13 13 15 16 16 15 12 11 12 11 11 11 11 11 11 11 11 12 12 11 11 11 11 11 11 11 13 13 12 10 9 9 9 9 9 9 10 11 12 14 14 14 14 13 13 13 13 13 13 13 13 13 14 14 14 14 14 14 14 14 15 15 15 15 15 15 15 15 15 15 16 17 18 20 20 20 20 19 18 17 15 14 13 12 12 11 11 10 10 9 9
7 14 17 15 15 15 13 13 14 15 15 13 11 11 12 11 11 11 11 11 11 11 11 12 12 12 12 12 12 12 12 11 12 13 12 10 9 9 9 9 9 9 10 11 13 14 14 14 14 13 13 13 13 13 13 14 14 14 14 14 15 14 15 15 16 16 16 17 16 16 16 16 16 16 16 15 16 16 17 18 19 20 20 21 21 20 18 16 15 13 13 12 11 10 10 9 9
8 16 17 16 17 14 12 12 12 13 13 12 11 11 12 11 11 11 12 11 11 12 12 11 12 12 12 12 12 12 12 11 12 12 11 10 10 10 9 9 9 10 11 12 14 15 15 14 14 13 13 14 14 14 14 15 15 15 15 15 16 17 18 19 20 20 20 20 19 20 19 19 18 18 18 17 17 17 17 17 18 20 21 22 23 23 21 19 17 15 13 12 11 10 10 10 9
9 13 14 17 18 12 9 10 10 10 10 12 12 11 12 11 11 11 12 12 12 13 12 11 11 12 12 12 12 12 12 12 12 12 12 11 11 10 10 10 10 10 11 14 15 15 15 14 14 13 14 15 15 15 15 15 15 16 17 18 20 21 22 22 23 22 22 22 21 21 21 21 22 21 21 21 20 20 19 19 20 21 22 23 24 24 24 22 20 17 15 13 12 11 11 10 9
9 12 14 14 13 10 9 9 9 9 10 12 12 11 11 11 11 11 11 12 13 13 11 11 11 11 11 11 12 12 12 13 13 13 12 12 12 11 11 11 11 11 12 14 16 16 15 15 14 14 15 15 16 16 16 16 17 18 20 22 23 23 23 22 22 21 20 20 20 20 20 21 22 24 25 25 25 25 24 23 23 23 23 24 24 24 24 24 22 20 17 15 13 13 12 11 10
9 10 12 11 10 10 9 9 9 9 10 11 11 11 11 11 11 11 11 11 12 11 10 10 11 11 11 11 11 12 13 13 13 13 13 13 12 12 12 12 11 11 12 15 17 17 16 16 15 15 16 16 16 16 16 17 20 22 23 23 23 23 24 23 23 22 22 21 20 20 20 21 21 22 24 25 26 27 27 27 26 26 25 25 24 24 24 25 24 23 20 17 15 14 13 13 11
10 11 9 9 9 10 10 9 10 9 10 10 11 11 10 10 10 10 10 11 11 10 10 10 10 11 11 11 12 13 13 13 14 14 14 14 14 13 13 12 12 12 13 15 17 18 17 16 17 16 17 17 17 17 18 21 23 24 24 24 25 26 27 27 27 26 25 25 24 23 23 22 21 21 21 22 24 25 26 27 27 27 27 26 26 25 25 24 25 25 23 21 18 16 14 13 12
11 12 9 9 9 9 9 10 9 9 9 9 10 10 10 10 10 10 10 10 10 10 10 10 10 11 11 12 12 12 13 14 14 15 14 14 14 14 14 14 13 13 13 16 18 19 18 18 17 17 17 17 17 19 22 24 25 25 26 27 29 29 30 29 29 28 28 28 27 27 26 25 24 22 21 21 21 22 23 25 25 26 27 26 26 26 25 24 24 25 25 24 21 18 15 14 12
12 11 9 9 9 9 9 10 10 9 9 9 9 10 10 10 10 10 10 10 10 10 10 10 11 11 11 12 12 13 13 14 15 15 15 15 15 15 14 15 14 14 14 16 19 20 20 19 18 18 18 19 21 24 25 26 26 27 29 30 31 31 31 31 30 30 29 29 29 29 28 27 26 24 23 21 21 21 21 22 23 24 25 25 25 25 25 24 24 23 24 24 23 19 16 14 13
11 9 9 9 9 9 9 9 9 9 9 9 10 10 10 9 10 10 10 10 10 10 10 11 11 11 12 12 13 13 14 14 15 15 15 15 16 15 15 15 15 15 15 17 21 21 21 20 19 20 20 22 25 27 28 28 29 31 32 33 34 34 33 33 32 31 31 30 30 30 30 29 27 26 24 23 22 21 21 21 22 22 23 23 24 24 24 24 23 23 23 23 23 21 19 15 14
9 9 9 9 10 10 10 9 9 9 9 10 10 11 10 9 11 11 10 10 10 11 11 11 12 12 12 13 13 14 14 15 15 15 16 16 16 16 16 16 16 16 17 19 22 22 21 20 20 22 24 27 28 29 30 32 34 34 35 35 35 36 35 35 33 32 32 31 31 32 31 30 29 27 26 24 22 22 22 22 22 22 22 22 22 23 23 23 23 23 22 22 22 22 21 18 15
9 9 9 11 11 10 10 10 10 10 10 10 11 11 11 10 12 12 10 10 11 11 11 11 12 13 13 14 14 14 15 15 16 16 17 17 17 17 17 17 16 17 19 22 23 23 22 22 23 25 27 30 30 32 34 36 37 37 37 38 38 38 37 36 34 33 33 33 33 33 32 32 31 29 28 26 24 22 22 22 22 22 22 22 21 22 22 22 22 23 22 22 22 22 23 21 18
9 9 11 15 15 12 11 11 10 10 11 11 10 12 13 13 12 11 10 11 12 11 12 12 13 13 14 14 15 15 15 15 16 17 18 19 19 18 18 18 18 20 22 23 24 24 23 24 26 28 30 31 32 35 37 39 39 39 39 40 40 40 39 38 36 35 34 35 35 35 35 34 33 32 30 29 26 24 23 22 22 22 22 21 21 21 21 21 21 22 22 22 22 21 22 23 21
10 12 14 18 19 18 13 10 11 10 12 11 11 15 16 14 12 10 11 12 12 12 12 13 13 14 14 15 16 16 16 16 17 17 19 20 20 20 19 20 21 23 25 25 25 25 25 27 29 30 31 32 35 37 39 40 41 41 41 42 42 42 40 39 38 37 37 37 37 37 37 36 34 33 32 30 29 27 25 24 24 23 22 21 21 21 20 21 21 21 22 22 22 21 21 22 22
13 14 18 19 17 21 17 11 12 11 12 11 12 17 15 13 12 10 11 12 12 13 13 14 14 14 15 16 16 16 17 17 17 18 19 20 20 20 21 23 24 26 27 27 27 27 29 31 32 33 35 37 40 41 42 43 43 44 44 44 44 43 42 41 40 39 39 38 38 38 37 36 35 34 32 31 30 29 27 26 25 25 24 23 22 22 21 21 21 21 22 22 22 22 21 21 21
19 15 21 24 17 22 21 12 12 12 12 12 13 18 17 14 13 11 12 12 13 13 14 15 15 15 16 17 17 16 17 18 19 19 20 20 21 22 24 26 28 29 29 29 30 32 34 35 36 38 40 43 44 45 46 46 47 47 47 47 46 45 44 43 42 41 41 41 40 39 38 36 35 34 33 32 31 30 28 27 27 26 25 24 23 23 22 22 22 22 22 22 22 22 22 22 22
25 18 19 23 17 19 19 14 14 13 13 13 14 18 17 15 14 12 12 13 13 14 14 16 15 16 17 18 18 17 18 19 19 20 20 22 23 25 28 30 31 32 32 33 34 36 38 38 38 40 42 44 45 45 46 46 47 47 48 48 48 47 46 45 45 44 43 43 41 40 38 36 34 34 33 31 30 30 29 28 28 27 26 26 25 24 24 23 23 23 23 23 23 23 23 23 23
22 19 18 21 19 17 17 17 16 14 15 16 16 18 16 15 14 14 14 14 14 14 16 16 16 17 18 19 19 19 20 20 20 21 22 24 27 29 31 33 34 34 35 37 38 39 40 40 41 42 43 44 45 45 44 45 47 48 47 47 47 47 47 46 46 45 44 43 42 40 38 36 34 33 32 31 30 30 30 29 30 29 28 28 28 27 27 26 25 25 24 24 24 24 24 23 23
15 17 17 19 22 18 18 19 17 16 17 18 19 19 18 17 16 15 15 15 15 15 16 17 17 18 19 20 20 20 20 21 22 24 26 29 31 33 33 34 35 37 40 41 42 43 43 44 44 44 45 44 45 44 44 46 47 48 47 45 46 45 44 44 44 43 42 40 39 38 35 33 32 31 31 31 31 31 31 31 31 31 30 30 30 30 30 29 29 28 27 27 26 26 25 25 24
16 19 19 19 21 18 18 20 20 18 17 19 20 20 20 18 17 17 16 15 15 15 16 17 18 19 21 22 21 22 23 25 26 28 31 33 34 34 35 36 38 40 42 44 44 45 46 46 47 47 47 46 46 46 47 48 49 49 47 45 45 45 44 42 41 39 37 35 33 31 29 28 28 29 30 32 33 35 35 35 35 35 34 33 32 33 33 32 31 31 30 29 29 28 28 27 26
18 19 21 20 20 19 19 21 22 20 18 22 22 21 22 19 18 18 17 17 16 16 18 19 20 21 22 23 23 24 26 28 30 31 33 35 35 36 37 38 40 42 43 44 45 46 48 49 49 49 49 49 50 50 51 51 50 50 49 48 47 46 44 43 40 37 34 32 29 28 28 30 32 33 34 35 36 36 36 37 36 36 35 34 33 32 32 31 31 31 30 29 28 28 27 27 27
18 18 19 20 22 21 20 21 23 21 20 24 24 22 21 19 19 19 18 19 18 18 20 21 23 24 25 25 26 27 29 30 32 33 34 36 37 37 38 39 41 42 43 45 46 48 49 50 50 50 51 52 52 53 53 52 51 51 50 49 48 46 44 41 39 36 34 33 32 33 35 36 37 37 37 36 35 34 33 33 32 32 32 31 30 29 28 27 27 27 26 26 25 25 24 24 25
20 21 20 20 23 23 23 23 25 23 20 23 24 22 20 21 21 20 20 20 19 20 21 24 25 26 27 27 28 29 31 32 33 34 36 38 38 39 40 41 42 44 45 46 47 48 49 49 50 50 51 51 52 52 52 51 50 49 48 46 45 44 42 41 40 39 39 39 39 39 39 38 37 35 34 33 31 29 28 27 25 25 25 25 24 23 23 22 22 22 21 21 21 20 20 19 20
21 20 19 21 23 24 24 24 26 25 23 23 24 23 23 25 23 21 22 22 23 23 24 26 27 28 29 29 31 32 33 35 36 38 39 40 41 42 42 44 45 46 46 47 47 48 48 49 50 50 51 51 51 51 50 49 48 47 46 46 46 46 46 47 46 45 45 44 42 40 38 37 34 31 29 28 26 24 23 21 21 20 19 19 19 19 19 19 18 18 18 18 17 17 16 16 16
26 24 20 23 24 23 23 26 26 24 25 25 23 24 25 26 26 23 23 25 25 27 27 29 30 30 31 32 34 36 38 39 40 41 42 42 43 44 45 46 46 46 46 47 48 49 50 50 51 51 51 51 51 51 51 51 51 51 52 52 53 52 52 51 50 48 47 45 42 39 36 33 31 28 26 25 23 21 21 20 19 19 18 17 17 17 17 17 17 17 17 17 16 16 15 15 14
26 26 23 24 24 22 24 27 25 23 25 24 23 28 30 29 28 25 25 29 29 30 31 31 33 33 34 35 36 39 40 41 43 43 44 45 45 45 46 46 47 47 48 49 50 51 52 53 55 55 54 55 56 57 57 58 58 58 57 56 55 54 53 53 52 49 46 43 39 35 33 31 28 27 25 24 23 22 21 20 20 19 19 18 17 16 16 16 17 17 17 16 16 16 15 15 15
22 25 26 26 24 22 24 25 25 25 25 24 25 32 34 31 31 28 29 33 33 34 35 35 36 36 37 38 39 41 42 42 43 45 45 46 46 46 47 48 49 50 51 53 54 56 57 59 60 60 59 59 59 59 60 60 58 57 57 55 55 54 52 52 49 46 40 36 33 30 29 28 27 26 25 24 23 22 22 21 21 20 19 19 18 17 16 15 16 16 16 16 16 15 15 15 15
23 26 26 25 23 23 25 24 25 28 27 28 30 31 32 34 34 34 34 35 36 37 39 39 38 39 40 40 42 42 43 43 44 46 47 47 48 49 51 52 54 56 57 58 60 61 63 63 64 62 61 60 59 59 58 56 53 52 53 53 53 51 49 46 41 37 34 30 28 27 27 26 25 24 24 23 23 22 22 21 20 20 19 18 18 18 17 16 15 16 16 16 16 16 15 15 15
23 27 26 25 23 24 27 25 27 32 30 30 33 32 34 38 36 35 37 38 39 39 40 41 40 41 42 42 43 44 45 45 46 49 50 51 53 56 58 59 61 62 63 64 65 66 67 67 65 64 63 62 61 60 57 54 52 50 50 49 46 43 40 37 33 31 29 27 26 26 25 25 24 24 23 23 23 22 22 21 20 19 19 19 19 19 19 18 17 16 16 17 17 16 16 15 15
23 27 27 28 30 28 27 27 30 36 35 31 33 33 36 40 36 34 39 40 40 40 41 43 43 44 44 45 47 48 49 50 51 53 56 58 60 63 65 67 68 69 70 71 71 71 71 69 68 67 66 66 64 61 58 55 53 51 49 45 39 34 32 31 29 27 25 23 22 24 24 24 23 23 23 23 23 22 22 21 21 21 20 20 20 20 20 20 20 19 17 17 17 17 16 16 15
23 27 28 29 31 31 32 35 34 36 38 35 35 36 37 41 38 34 39 41 41 42 44 46 47 48 49 50 52 53 55 56 57 59 62 65 68 71 73 75 75 76 76 75 75 73 73 72 71 69 67 65 62 59 56 52 49 45 41 35 30 28 28 27 24 21 19 18 20 22 23 23 23 23 24 24 23 23 23 23 22 22 22 21 21 21 21 22 22 22 21 19 17 17 17 17 16
27 29 28 26 29 30 33 40 38 37 43 39 38 40 39 42 41 36 39 43 44 46 48 51 53 53 54 56 58 59 59 61 62 66 70 73 76 78 79 79 79 79 77 75 74 73 72 70 68 66 63 60 58 55 52 46 38 32 27 24 23 24 23 19 17 17 19 21 22 23 24 24 23 23 24 24 24 25 24 24 24 23 23 22 22 22 23 23 23 23 23 22 19 18 18 17 17
30 31 30 30 35 35 35 41 40 40 45 38 35 38 37 40 40 39 43 46 48 51 52 54 56 57 59 60 62 62 64 66 69 73 77 79 81 81 81 81 79 78 77 76 74 72 70 67 64 60 57 54 52 49 43 36 29 24 21 21 20 18 14 14 18 22 25 25 24 24 23 23 23 23 24 24 24 24 24 24 24 23 23 23 23 23 23 23 23 23 23 23 22 20 19 17 17
27 28 32 35 39 40 43 47 42 40 42 37 35 38 39 41 42 44 49 50 52 54 54 57 59 61 63 63 65 66 69 72 75 78 80 82 83 82 82 82 81 80 79 77 75 72 68 63 58 52 48 45 41 36 31 27 24 21 19 18 16 13 13 18 24 25 25 24 23 23 22 23 23 23 23 23 23 24 25 26 25 24 24 25 24 23 23 24 24 24 23 22 22 21 20 19 18
30 31 33 35 37 38 43 46 42 41 44 40 38 42 46 47 48 51 53 53 55 57 59 62 63 65 67 66 68 69 72 76 77 79 82 83 84 84 85 85 83 82 80 76 73 70 65 58 51 45 41 37 33 29 27 24 21 18 15 13 12 13 16 21 25 24 24 24 22 22 21 20 20 20 22 24 27 29 30 30 29 28 28 28 26 24 24 25 24 24 23 22 22 22 21 21 21
32 32 32 35 39 39 40 45 44 45 50 50 47 48 49 50 53 56 56 56 59 60 62 66 68 70 70 70 71 73 76 80 81 83 85 87 88 88 87 86 84 82 79 76 72 68 61 52 45 40 36 33 30 27 24 20 17 13 11 12 13 16 21 26 27 25 23 19 18 16 14 15 19 23 27 29 31 32 32 32 32 31 31 30 28 26 25 25 25 24 24 23 23 23 22 22 22
31 31 33 37 39 38 41 46 47 48 53 52 48 49 51 53 58 59 58 61 63 64 67 70 72 73 72 73 74 76 82 85 86 87 89 89 89 87 86 85 84 82 78 74 69 62 53 44 39 36 32 30 27 24 19 15 13 12 13 15 16 20 25 27 25 20 15 12 11 12 15 22 28 31 32 33 32 32 32 32 32 33 33 32 30 28 25 25 25 25 25 24 24 23 23 23 24
32 34 37 39 39 42 46 48 51 58 59 53 48 52 57 60 62 60 60 65 67 70 73 74 76 77 76 78 78 81 86 88 88 89 89 90 88 86 85 83 81 77 72 66 61 54 45 38 35 32 28 26 23 18 15 14 14 15 16 15 14 16 18 17 14 11 10 11 14 20 27 32 33 33 33 31 29 28 29 30 31 32 33 34 33 31 28 25 24 24 25 26 26 25 25 25 25
32 35 36 37 39 46 50 49 53 59 62 62 57 55 57 62 65 64 64 68 71 74 77 78 79 80 79 80 81 84 88 88 88 89 88 87 84 81 79 76 73 69 65 61 55 47 39 34 32 29 26 22 17 14 15 21 25 24 19 14 11 11 10 10 11 11 14 17 22 27 32 33 32 31 29 26 22 20 20 21 24 28 32 34 34 34 33 30 27 26 27 29 28 28 29 28 27
32 34 36 37 39 45 48 48 53 57 61 67 64 59 60 60 64 67 69 73 75 77 79 81 81 82 81 82 84 87 88 87 86 86 83 80 77 75 72 70 68 65 61 57 49 40 34 30 28 25 21 17 13 12 21 32 34 29 20 14 11 11 11 12 13 16 22 27 29 30 30 28 26 23 20 17 15 14 14 15 16 20 24 28 31 33 35 34 32 31 31 31 31 31 32 30 28
34 37 39 39 40 44 47 46 52 56 60 67 69 67 64 58 61 69 72 74 77 79 82 83 83 83 81 82 84 85 84 83 82 81 78 75 73 71 69 68 65 60 57 50 40 32 27 24 23 20 17 14 12 17 30 38 34 26 18 13 12 13 13 16 20 26 31 32 29 26 22 19 17 15 14 14 14 14 14 14 14 15 17 19 22 25 28 31 33 34 33 32 32 32 32 30 29
40 41 41 43 44 47 50 53 57 57 58 67 71 70 66 61 62 67 70 73 77 79 81 81 80 79 77 79 82 81 79 78 77 76 74 71 69 68 66 63 60 55 48 38 28 23 21 21 21 18 16 14 16 26 37 35 27 19 14 13 14 14 17 24 30 31 30 25 22 19 17 15 14 14 14 14 14 15 15 16 16 16 16 16 16 17 18 22 27 31 33 33 32 31 30 30 31